StationID,Date,MaxTemp,MinTemp,Precipitation,Snowfall,SnowDepth
"US1AKAB0038","2009-07-26",,,28.00,0.00,0.00
"US1AKAB0038","2009-07-27",,,0.00,0.00,0.00
"US1AKAB0038","2009-07-28",,,25.00,0.00,0.00
"US1AKAB0038","2009-07-29",,,53.00,0.00,0.00
"US1AKAB0038","2009-07-30",,,5.00,0.00,0.00
"US1AKAB0038","2009-07-31",,,18.00,0.00,0.00
"US1AKAB0038","2009-08-01",,,13.00,0.00,0.00
"US1AKAB0038","2009-08-02",,,0.00,0.00,0.00
"US1AKAB0038","2009-08-03",,,0.00,0.00,0.00
"US1AKAB0038","2009-08-04",,,0.00,0.00,0.00
"US1AKAB0038","2009-08-05",,,13.00,0.00,0.00
"US1AKAB0038","2009-08-06",,,99.00,0.00,0.00
"US1AKAB0038","2009-08-07",,,15.00,0.00,0.00
"US1AKAB0038","2009-08-08",,,3.00,0.00,0.00
"US1AKAB0038","2009-08-09",,,0.00,0.00,0.00
"US1AKAB0038","2009-08-10",,,0.00,0.00,0.00
"US1AKAB0038","2009-08-11",,,0.00,0.00,0.00
"US1AKAB0038","2009-08-12",,,0.00,0.00,0.00
"US1AKAB0038","2009-08-13",,,0.00,0.00,0.00
"US1AKAB0038","2009-08-14",,,15.00,0.00,0.00
"US1AKAB0038","2009-08-15",,,56.00,0.00,0.00
"US1AKAB0038","2009-08-16",,,20.00,0.00,0.00
"US1AKAB0038","2009-08-17",,,84.00,0.00,0.00
"US1AKAB0038","2009-08-18",,,23.00,0.00,0.00
"US1AKAB0038","2009-08-19",,,25.00,0.00,0.00
"US1AKAB0038","2009-08-20",,,33.00,0.00,0.00
"US1AKAB0038","2009-08-21",,,0.00,0.00,0.00
"US1AKAB0038","2009-08-22",,,0.00,0.00,0.00
"US1AKAB0038","2009-08-23",,,15.00,0.00,0.00
"US1AKAB0038","2009-08-24",,,28.00,0.00,0.00
"US1AKAB0038","2009-08-25",,,23.00,0.00,0.00
"US1AKAB0038","2009-08-26",,,5.00,0.00,0.00
"US1AKAB0038","2009-08-27",,,23.00,0.00,0.00
"US1AKAB0038","2009-08-28",,,8.00,0.00,0.00
"US1AKAB0038","2009-08-29",,,10.00,0.00,0.00
"US1AKAB0038","2009-08-30",,,13.00,0.00,0.00
"US1AKAB0038","2009-08-31",,,0.00,0.00,0.00
"US1AKAB0038","2009-09-01",,,0.00,0.00,0.00
"US1AKAB0038","2009-09-02",,,8.00,0.00,0.00
"US1AKAB0038","2009-09-03",,,0.00,0.00,0.00
"US1AKAB0038","2009-09-04",,,0.00,0.00,0.00
"US1AKAB0038","2009-09-05",,,0.00,0.00,0.00
"US1AKAB0038","2009-09-06",,,0.00,0.00,0.00
"US1AKAB0038","2009-09-07",,,0.00,0.00,0.00
"US1AKAB0038","2009-09-08",,,0.00,0.00,0.00
"US1AKAB0038","2009-09-09",,,0.00,0.00,0.00
"US1AKAB0038","2009-09-10",,,0.00,0.00,0.00
"US1AKAB0038","2009-09-11",,,3.00,0.00,0.00
"US1AKAB0038","2009-09-12",,,18.00,0.00,0.00
"US1AKAB0038","2009-09-13",,,28.00,0.00,0.00
"US1AKAB0038","2009-09-14",,,23.00,0.00,0.00
"US1AKAB0038","2009-09-15",,,0.00,0.00,0.00
"US1AKAB0038","2009-09-16",,,0.00,0.00,0.00
"US1AKAB0038","2009-09-17",,,0.00,0.00,0.00
"US1AKAB0038","2009-09-18",,,0.00,0.00,0.00
"US1AKAB0038","2009-09-19",,,0.00,0.00,0.00
"US1AKAB0038","2009-09-20",,,0.00,0.00,0.00
"US1AKAB0038","2009-09-21",,,15.00,0.00,0.00
"US1AKAB0038","2009-09-22",,,56.00,0.00,0.00
"US1AKAB0038","2009-09-23",,,58.00,38.00,38.00
"US1AKAB0038","2009-09-24",,,0.00,0.00,25.00
"US1AKAB0038","2009-09-25",,,30.00,0.00,0.00
"US1AKAB0038","2009-09-26",,,89.00,46.00,38.00
"US1AKAB0038","2009-09-27",,,20.00,8.00,0.00
"US1AKAB0038","2009-09-28",,,5.00,0.00,0.00
"US1AKAB0038","2009-09-29",,,0.00,0.00,0.00
"US1AKAB0038","2009-09-30",,,3.00,0.00,0.00
"US1AKAB0038","2009-10-01",,,0.00,0.00,0.00
"US1AKAB0038","2009-10-02",,,0.00,0.00,0.00
"US1AKAB0038","2009-10-03",,,8.00,0.00,0.00
"US1AKAB0038","2009-10-04",,,10.00,0.00,0.00
"US1AKAB0038","2009-10-05",,,43.00,0.00,0.00
"US1AKAB0038","2009-10-06",,,18.00,0.00,0.00
"US1AKAB0038","2009-10-07",,,76.00,0.00,0.00
"US1AKAB0038","2009-10-08",,,43.00,0.00,0.00
"US1AKAB0038","2009-10-09",,,13.00,0.00,0.00
"US1AKAB0038","2009-10-10",,,0.00,0.00,0.00
"US1AKAB0038","2009-10-11",,,3.00,0.00,0.00
"US1AKAB0038","2009-10-12",,,0.00,0.00,0.00
"US1AKAB0038","2009-10-13",,,0.00,0.00,0.00
"US1AKAB0038","2009-10-14",,,3.00,0.00,0.00
"US1AKAB0038","2009-10-15",,,5.00,0.00,0.00
"US1AKAB0038","2009-10-16",,,0.00,0.00,0.00
"US1AKAB0038","2009-10-17",,,0.00,0.00,0.00
"US1AKAB0038","2009-10-18",,,0.00,0.00,0.00
"US1AKAB0038","2009-10-19",,,0.00,0.00,0.00
"US1AKAB0038","2009-10-20",,,0.00,0.00,0.00
"US1AKAB0038","2009-10-21",,,0.00,0.00,0.00
"US1AKAB0038","2009-10-22",,,0.00,0.00,0.00
"US1AKAB0038","2009-10-23",,,13.00,0.00,0.00
"US1AKAB0038","2009-10-24",,,25.00,0.00,0.00
"US1AKAB0038","2009-10-25",,,0.00,0.00,0.00
"US1AKAB0038","2009-10-26",,,0.00,0.00,0.00
"US1AKAB0038","2009-10-27",,,53.00,71.00,51.00
"US1AKAB0038","2009-10-28",,,13.00,23.00,76.00
"US1AKAB0038","2009-10-29",,,0.00,0.00,64.00
"US1AKAB0038","2009-10-30",,,0.00,0.00,64.00
"US1AKAB0038","2009-10-31",,,0.00,0.00,51.00
"US1AKAB0038","2009-11-01",,,0.00,0.00,51.00
"US1AKAB0038","2009-11-02",,,0.00,0.00,51.00
"US1AKAB0038","2009-11-03",,,0.00,0.00,51.00
"US1AKAB0038","2009-11-04",,,0.00,0.00,51.00
"US1AKAB0038","2009-11-05",,,33.00,20.00,51.00
"US1AKAB0038","2009-11-06",,,0.00,0.00,13.00
"US1AKAB0038","2009-11-07",,,15.00,23.00,25.00
"US1AKAB0038","2009-11-08",,,0.00,0.00,25.00
"US1AKAB0038","2009-11-09",,,150.00,213.00,229.00
"US1AKAB0038","2009-11-10",,,18.00,25.00,241.00
"US1AKAB0038","2009-11-11",,,0.00,0.00,229.00
"US1AKAB0038","2009-11-12",,,97.00,135.00,356.00
"US1AKAB0038","2009-11-13",,,0.00,0.00,279.00
"US1AKAB0038","2009-11-14",,,10.00,18.00,279.00
"US1AKAB0038","2009-11-15",,,13.00,20.00,254.00
"US1AKAB0038","2009-11-16",,,0.00,0.00,229.00
"US1AKAB0038","2009-11-17",,,0.00,0.00,229.00
"US1AKAB0038","2009-11-18",,,0.00,0.00,229.00
"US1AKAB0038","2009-11-19",,,0.00,0.00,229.00
"US1AKAB0038","2009-11-20",,,0.00,0.00,229.00
"US1AKAB0038","2009-11-21",,,13.00,15.00,229.00
"US1AKAB0038","2009-11-22",,,3.00,5.00,229.00
"US1AKAB0038","2009-11-23",,,0.00,0.00,229.00
"US1AKAB0038","2009-11-24",,,10.00,18.00,203.00
"US1AKAB0038","2009-11-25",,,0.00,0.00,203.00
"US1AKAB0038","2009-11-26",,,74.00,107.00,305.00
"US1AKAB0038","2009-11-27",,,0.00,3.00,292.00
"US1AKAB0038","2009-11-28",,,97.00,122.00,419.00
"US1AKAB0038","2009-11-29",,,0.00,0.00,419.00
"US1AKAB0038","2009-11-30",,,5.00,10.00,406.00
"US1AKAB0038","2009-12-01",,,5.00,8.00,356.00
"US1AKAB0038","2009-12-02",,,61.00,71.00,381.00
"US1AKAB0038","2009-12-03",,,30.00,41.00,419.00
"US1AKAB0038","2009-12-04",,,0.00,0.00,419.00
"US1AKAB0038","2009-12-05",,,0.00,0.00,419.00
"US1AKAB0038","2009-12-06",,,0.00,0.00,406.00
"US1AKAB0038","2009-12-07",,,0.00,0.00,381.00
"US1AKAB0038","2009-12-08",,,0.00,0.00,356.00
"US1AKAB0038","2009-12-09",,,0.00,0.00,356.00
"US1AKAB0038","2009-12-10",,,0.00,0.00,356.00
"US1AKAB0038","2009-12-11",,,0.00,0.00,356.00
"US1AKAB0038","2009-12-12",,,0.00,0.00,356.00
"US1AKAB0038","2009-12-13",,,0.00,0.00,356.00
"US1AKAB0038","2009-12-14",,,0.00,0.00,356.00
"US1AKAB0038","2009-12-15",,,23.00,66.00,419.00
"US1AKAB0038","2009-12-16",,,114.00,262.00,660.00
"US1AKAB0038","2009-12-17",,,201.00,218.00,864.00
"US1AKAB0038","2009-12-18",,,46.00,36.00,864.00
"US1AKAB0038","2009-12-19",,,0.00,0.00,838.00
"US1AKAB0038","2009-12-20",,,0.00,0.00,826.00
"US1AKAB0038","2009-12-21",,,0.00,0.00,813.00
"US1AKAB0038","2009-12-22",,,5.00,8.00,787.00
"US1AKAB0038","2009-12-23",,,18.00,23.00,775.00
"US1AKAB0038","2009-12-24",,,3.00,0.00,749.00
"US1AKAB0038","2009-12-25",,,0.00,0.00,737.00
"US1AKAB0038","2009-12-26",,,0.00,0.00,699.00
"US1AKAB0038","2009-12-27",,,0.00,0.00,660.00
"US1AKAB0038","2009-12-28",,,0.00,0.00,635.00
"US1AKAB0038","2009-12-29",,,0.00,0.00,635.00
"US1AKAB0038","2009-12-30",,,0.00,0.00,635.00
"US1AKAB0038","2009-12-31",,,0.00,0.00,635.00
"US1AKAB0038","2010-01-01",,,0.00,0.00,635.00
"US1AKAB0038","2010-01-02",,,0.00,0.00,635.00
"US1AKAB0038","2010-01-03",,,5.00,5.00,635.00
"US1AKAB0038","2010-01-04",,,0.00,0.00,635.00
"US1AKAB0038","2010-01-05",,,0.00,0.00,635.00
"US1AKAB0038","2010-01-06",,,0.00,0.00,635.00
"US1AKAB0038","2010-01-07",,,36.00,38.00,673.00
"US1AKAB0038","2010-01-08",,,0.00,0.00,610.00
"US1AKAB0038","2010-01-09",,,0.00,0.00,584.00
"US1AKAB0038","2010-01-10",,,0.00,0.00,584.00
"US1AKAB0038","2010-01-11",,,0.00,0.00,584.00
"US1AKAB0038","2010-01-12",,,0.00,0.00,584.00
"US1AKAB0038","2010-01-13",,,0.00,0.00,584.00
"US1AKAB0038","2010-01-14",,,28.00,46.00,635.00
"US1AKAB0038","2010-01-15",,,15.00,23.00,648.00
"US1AKAB0038","2010-01-16",,,0.00,0.00,635.00
"US1AKAB0038","2010-01-17",,,5.00,5.00,635.00
"US1AKAB0038","2010-01-18",,,0.00,0.00,635.00
"US1AKAB0038","2010-01-19",,,0.00,0.00,635.00
"US1AKAB0038","2010-01-20",,,0.00,0.00,635.00
"US1AKAB0038","2010-01-21",,,0.00,0.00,635.00
"US1AKAB0038","2010-01-22",,,0.00,0.00,635.00
"US1AKAB0038","2010-01-23",,,0.00,0.00,635.00
"US1AKAB0038","2010-01-24",,,0.00,0.00,635.00
"US1AKAB0038","2010-01-25",,,0.00,0.00,635.00
"US1AKAB0038","2010-01-26",,,0.00,0.00,635.00
"US1AKAB0038","2010-01-27",,,0.00,0.00,635.00
"US1AKAB0038","2010-01-28",,,0.00,0.00,635.00
"US1AKAB0038","2010-01-29",,,0.00,0.00,635.00
"US1AKAB0038","2010-01-30",,,0.00,0.00,635.00
"US1AKAB0038","2010-01-31",,,0.00,0.00,635.00
"US1AKAB0038","2010-02-01",,,0.00,0.00,622.00
"US1AKAB0038","2010-02-02",,,3.00,5.00,622.00
"US1AKAB0038","2010-02-03",,,0.00,0.00,610.00
"US1AKAB0038","2010-02-04",,,0.00,0.00,597.00
"US1AKAB0038","2010-02-05",,,15.00,28.00,610.00
"US1AKAB0038","2010-02-06",,,119.00,165.00,711.00
"US1AKAB0038","2010-02-07",,,38.00,66.00,762.00
"US1AKAB0038","2010-02-08",,,89.00,130.00,864.00
"US1AKAB0038","2010-02-09",,,5.00,10.00,838.00
"US1AKAB0038","2010-02-10",,,0.00,0.00,813.00
"US1AKAB0038","2010-02-11",,,0.00,0.00,787.00
"US1AKAB0038","2010-02-12",,,5.00,8.00,787.00
"US1AKAB0038","2010-02-13",,,10.00,15.00,787.00
"US1AKAB0038","2010-02-14",,,3.00,5.00,775.00
"US1AKAB0038","2010-02-15",,,5.00,8.00,749.00
"US1AKAB0038","2010-02-16",,,0.00,0.00,724.00
"US1AKAB0038","2010-02-17",,,0.00,0.00,699.00
"US1AKAB0038","2010-02-18",,,10.00,13.00,686.00
"US1AKAB0038","2010-02-19",,,0.00,0.00,635.00
"US1AKAB0038","2010-02-20",,,0.00,0.00,584.00
"US1AKAB0038","2010-02-21",,,0.00,0.00,533.00
"US1AKAB0038","2010-02-22",,,0.00,0.00,508.00
"US1AKAB0038","2010-02-23",,,0.00,0.00,508.00
"US1AKAB0038","2010-02-24",,,5.00,10.00,508.00
"US1AKAB0038","2010-02-25",,,13.00,20.00,521.00
"US1AKAB0038","2010-02-26",,,89.00,163.00,660.00
"US1AKAB0038","2010-02-27",,,23.00,94.00,737.00
"US1AKAB0038","2010-02-28",,,3.00,5.00,711.00
"US1AKAB0038","2010-03-01",,,5.00,13.00,699.00
"US1AKAB0038","2010-03-02",,,5.00,8.00,686.00
"US1AKAB0038","2010-03-03",,,0.00,0.00,660.00
"US1AKAB0038","2010-03-04",,,13.00,20.00,660.00
"US1AKAB0038","2010-03-05",,,18.00,25.00,660.00
"US1AKAB0038","2010-03-06",,,41.00,53.00,660.00
"US1AKAB0038","2010-03-07",,,15.00,23.00,660.00
"US1AKAB0038","2010-03-08",,,5.00,10.00,660.00
"US1AKAB0038","2010-03-09",,,173.00,206.00,838.00
"US1AKAB0038","2010-03-10",,,10.00,18.00,851.00
"US1AKAB0038","2010-03-11",,,8.00,15.00,864.00
"US1AKAB0038","2010-03-12",,,13.00,20.00,876.00
"US1AKAB0038","2010-03-13",,,0.00,0.00,864.00
"US1AKAB0038","2010-03-14",,,5.00,10.00,851.00
"US1AKAB0038","2010-03-15",,,0.00,0.00,826.00
"US1AKAB0038","2010-03-16",,,0.00,0.00,800.00
"US1AKAB0038","2010-03-17",,,0.00,0.00,787.00
"US1AKAB0038","2010-03-18",,,0.00,0.00,775.00
"US1AKAB0038","2010-03-19",,,3.00,3.00,775.00
"US1AKAB0038","2010-03-20",,,0.00,0.00,762.00
"US1AKAB0038","2010-03-21",,,0.00,0.00,749.00
"US1AKAB0038","2010-03-22",,,0.00,0.00,749.00
"US1AKAB0038","2010-03-23",,,0.00,0.00,749.00
"US1AKAB0038","2010-03-24",,,3.00,5.00,749.00
"US1AKAB0038","2010-03-25",,,0.00,0.00,737.00
"US1AKAB0038","2010-03-26",,,0.00,0.00,737.00
"US1AKAB0038","2010-03-27",,,0.00,0.00,737.00
"US1AKAB0038","2010-03-28",,,41.00,53.00,762.00
"US1AKAB0038","2010-03-29",,,3.00,5.00,749.00
"US1AKAB0038","2010-03-30",,,0.00,0.00,724.00
"US1AKAB0038","2010-03-31",,,0.00,0.00,699.00
"US1AKAB0038","2010-04-01",,,3.00,5.00,699.00
"US1AKAB0038","2010-04-02",,,0.00,0.00,673.00
"US1AKAB0038","2010-04-03",,,0.00,0.00,648.00
"US1AKAB0038","2010-04-04",,,0.00,0.00,635.00
"US1AKAB0038","2010-04-05",,,0.00,0.00,635.00
"US1AKAB0038","2010-04-06",,,48.00,61.00,673.00
"US1AKAB0038","2010-04-07",,,8.00,13.00,660.00
"US1AKAB0038","2010-04-08",,,5.00,23.00,660.00
"US1AKAB0038","2010-04-09",,,0.00,0.00,660.00
"US1AKAB0038","2010-04-10",,,0.00,0.00,648.00
"US1AKAB0038","2010-04-11",,,0.00,0.00,635.00
"US1AKAB0038","2010-04-12",,,3.00,5.00,635.00
"US1AKAB0038","2010-04-13",,,46.00,74.00,660.00
"US1AKAB0038","2010-04-14",,,36.00,61.00,699.00
"US1AKAB0038","2010-04-15",,,74.00,147.00,813.00
"US1AKAB0038","2010-04-16",,,0.00,0.00,787.00
"US1AKAB0038","2010-04-17",,,0.00,0.00,775.00
"US1AKAB0038","2010-04-18",,,0.00,0.00,762.00
"US1AKAB0038","2010-04-19",,,41.00,20.00,699.00
"US1AKAB0038","2010-04-20",,,28.00,15.00,673.00
"US1AKAB0038","2010-04-21",,,0.00,0.00,648.00
"US1AKAB0038","2010-04-22",,,0.00,0.00,635.00
"US1AKAB0038","2010-04-23",,,46.00,84.00,699.00
"US1AKAB0038","2010-04-24",,,10.00,18.00,673.00
"US1AKAB0038","2010-04-25",,,0.00,0.00,660.00
"US1AKAB0038","2010-04-26",,,13.00,5.00,648.00
"US1AKAB0038","2010-04-27",,,0.00,0.00,622.00
"US1AKAB0038","2010-04-28",,,0.00,0.00,559.00
"US1AKAB0038","2010-04-29",,,0.00,0.00,470.00
"US1AKAB0038","2010-04-30",,,0.00,0.00,432.00
"US1AKAB0038","2010-05-01",,,28.00,30.00,419.00
"US1AKAB0038","2010-05-02",,,3.00,3.00,419.00
"US1AKAB0038","2010-05-03",,,0.00,0.00,394.00
"US1AKAB0038","2010-05-04",,,0.00,0.00,343.00
"US1AKAB0038","2010-05-05",,,0.00,0.00,292.00
"US1AKAB0038","2010-05-06",,,0.00,0.00,254.00
"US1AKAB0038","2010-05-07",,,0.00,0.00,229.00
"US1AKAB0038","2010-05-08",,,0.00,0.00,191.00
"US1AKAB0038","2010-05-09",,,0.00,0.00,178.00
"US1AKAB0038","2010-05-10",,,0.00,0.00,165.00
"US1AKAB0038","2010-05-11",,,0.00,0.00,140.00
"US1AKAB0038","2010-05-12",,,0.00,0.00,127.00
"US1AKAB0038","2010-05-13",,,0.00,0.00,114.00
"US1AKAB0038","2010-05-14",,,0.00,0.00,102.00
"US1AKAB0038","2010-05-15",,,0.00,0.00,102.00
"US1AKAB0038","2010-05-16",,,5.00,5.00,102.00
"US1AKAB0038","2010-05-17",,,3.00,3.00,89.00
"US1AKAB0038","2010-05-18",,,0.00,0.00,76.00
"US1AKAB0038","2010-05-19",,,0.00,0.00,64.00
"US1AKAB0038","2010-05-20",,,0.00,0.00,51.00
"US1AKAB0038","2010-05-21",,,0.00,0.00,25.00
"US1AKAB0038","2010-05-22",,,0.00,0.00,0.00
"US1AKAB0038","2010-05-23",,,0.00,0.00,0.00
"US1AKAB0038","2010-05-24",,,0.00,0.00,0.00
"US1AKAB0038","2010-05-25",,,0.00,0.00,0.00
"US1AKAB0038","2010-05-26",,,0.00,0.00,0.00
"US1AKAB0038","2010-05-27",,,0.00,0.00,0.00
"US1AKAB0038","2010-05-28",,,0.00,0.00,0.00
"US1AKAB0038","2010-05-29",,,0.00,0.00,0.00
"US1AKAB0038","2010-05-30",,,5.00,0.00,0.00
"US1AKAB0038","2010-05-31",,,0.00,0.00,0.00
"US1AKAB0038","2010-06-01",,,0.00,0.00,0.00
"US1AKAB0038","2010-06-02",,,0.00,0.00,0.00
"US1AKAB0038","2010-06-03",,,3.00,0.00,0.00
"US1AKAB0038","2010-06-04",,,41.00,0.00,0.00
"US1AKAB0038","2010-06-05",,,15.00,0.00,0.00
"US1AKAB0038","2010-06-06",,,0.00,0.00,0.00
"US1AKAB0038","2010-06-07",,,0.00,0.00,0.00
"US1AKAB0038","2010-06-08",,,0.00,0.00,0.00
"US1AKAB0038","2010-06-09",,,8.00,0.00,0.00
"US1AKAB0038","2010-06-10",,,3.00,0.00,0.00
"US1AKAB0038","2010-06-11",,,28.00,0.00,0.00
"US1AKAB0038","2010-06-12",,,0.00,0.00,0.00
"US1AKAB0038","2010-06-13",,,33.00,0.00,0.00
"US1AKAB0038","2010-06-14",,,8.00,0.00,0.00
"US1AKAB0038","2010-06-15",,,8.00,0.00,0.00
"US1AKAB0038","2010-06-16",,,13.00,0.00,0.00
"US1AKAB0038","2010-06-17",,,8.00,0.00,0.00
"US1AKAB0038","2010-06-18",,,5.00,0.00,0.00
"US1AKAB0038","2010-06-19",,,3.00,0.00,0.00
"US1AKAB0038","2010-06-20",,,53.00,0.00,0.00
"US1AKAB0038","2010-06-21",,,0.00,0.00,0.00
"US1AKAB0038","2010-06-22",,,13.00,0.00,0.00
"US1AKAB0038","2010-06-23",,,5.00,0.00,0.00
"US1AKAB0038","2010-06-24",,,0.00,0.00,0.00
"US1AKAB0038","2010-06-26",,,56.00,0.00,0.00
"US1AKAB0038","2010-06-27",,,5.00,0.00,0.00
"US1AKAB0038","2010-06-28",,,69.00,0.00,0.00
"US1AKAB0038","2010-06-29",,,0.00,0.00,0.00
"US1AKAB0038","2010-06-30",,,10.00,0.00,0.00
"US1AKAB0038","2010-07-01",,,0.00,0.00,0.00
"US1AKAB0038","2010-07-02",,,0.00,0.00,0.00
"US1AKAB0038","2010-07-03",,,18.00,0.00,0.00
"US1AKAB0038","2010-07-04",,,46.00,0.00,0.00
"US1AKAB0038","2010-07-05",,,15.00,0.00,0.00
"US1AKAB0038","2010-07-06",,,0.00,0.00,0.00
"US1AKAB0038","2010-07-07",,,0.00,0.00,0.00
"US1AKAB0038","2010-07-08",,,30.00,0.00,0.00
"US1AKAB0038","2010-07-09",,,5.00,0.00,0.00
"US1AKAB0038","2010-07-10",,,0.00,0.00,0.00
"US1AKAB0038","2010-07-11",,,0.00,0.00,0.00
"US1AKAB0038","2010-07-12",,,0.00,0.00,0.00
"US1AKAB0038","2010-07-13",,,18.00,0.00,0.00
"US1AKAB0038","2010-07-14",,,20.00,0.00,0.00
"US1AKAB0038","2010-07-15",,,3.00,0.00,0.00
"US1AKAB0038","2010-07-16",,,8.00,0.00,0.00
"US1AKAB0038","2010-07-17",,,0.00,0.00,0.00
"US1AKAB0038","2010-07-18",,,33.00,0.00,0.00
"US1AKAB0038","2010-07-19",,,30.00,0.00,0.00
"US1AKAB0038","2010-07-20",,,8.00,0.00,0.00
"US1AKAB0038","2010-07-21",,,97.00,0.00,0.00
"US1AKAB0038","2010-07-22",,,8.00,0.00,0.00
"US1AKAB0038","2010-07-23",,,23.00,0.00,0.00
"US1AKAB0038","2010-07-24",,,5.00,0.00,0.00
"US1AKAB0038","2010-07-25",,,28.00,0.00,0.00
"US1AKAB0038","2010-07-26",,,74.00,0.00,0.00
"US1AKAB0038","2010-07-27",,,69.00,0.00,0.00
"US1AKAB0038","2010-07-28",,,0.00,0.00,0.00
"US1AKAB0038","2010-07-29",,,13.00,0.00,0.00
"US1AKAB0038","2010-07-30",,,8.00,0.00,0.00
"US1AKAB0038","2010-07-31",,,51.00,0.00,0.00
"US1AKAB0038","2010-08-01",,,13.00,0.00,0.00
"US1AKAB0038","2010-08-02",,,25.00,0.00,0.00
"US1AKAB0038","2010-08-03",,,0.00,0.00,0.00
"US1AKAB0038","2010-08-04",,,20.00,0.00,0.00
"US1AKAB0038","2010-08-05",,,30.00,0.00,0.00
"US1AKAB0038","2010-08-06",,,15.00,0.00,0.00
"US1AKAB0038","2010-08-07",,,64.00,0.00,0.00
"US1AKAB0038","2010-08-08",,,43.00,0.00,0.00
"US1AKAB0038","2010-08-09",,,23.00,0.00,0.00
"US1AKAB0038","2010-08-10",,,0.00,0.00,0.00
"US1AKAB0038","2010-08-11",,,13.00,0.00,0.00
"US1AKAB0038","2010-08-12",,,0.00,0.00,0.00
"US1AKAB0038","2010-08-13",,,5.00,0.00,0.00
"US1AKAB0038","2010-08-14",,,61.00,0.00,0.00
"US1AKAB0038","2010-08-15",,,8.00,0.00,0.00
"US1AKAB0038","2010-08-16",,,0.00,0.00,0.00
"US1AKAB0038","2010-08-17",,,5.00,0.00,0.00
"US1AKAB0038","2010-08-18",,,30.00,0.00,0.00
"US1AKAB0038","2010-08-19",,,3.00,0.00,0.00
"US1AKAB0038","2010-08-20",,,0.00,0.00,0.00
"US1AKAB0038","2010-08-21",,,5.00,0.00,0.00
"US1AKAB0038","2010-08-22",,,5.00,0.00,0.00
"US1AKAB0038","2010-08-23",,,46.00,0.00,0.00
"US1AKAB0038","2010-08-24",,,20.00,0.00,0.00
"US1AKAB0038","2010-08-25",,,0.00,0.00,0.00
"US1AKAB0038","2010-08-26",,,0.00,0.00,0.00
"US1AKAB0038","2010-08-27",,,0.00,0.00,0.00
"US1AKAB0038","2010-08-28",,,15.00,0.00,0.00
"US1AKAB0038","2010-08-29",,,71.00,0.00,0.00
"US1AKAB0038","2010-08-30",,,8.00,0.00,0.00
"US1AKAB0038","2010-08-31",,,28.00,0.00,0.00
"US1AKAB0038","2010-09-01",,,18.00,0.00,0.00
"US1AKAB0038","2010-09-02",,,94.00,0.00,0.00
"US1AKAB0038","2010-09-03",,,0.00,0.00,0.00
"US1AKAB0038","2010-09-04",,,0.00,0.00,0.00
"US1AKAB0038","2010-09-05",,,56.00,0.00,0.00
"US1AKAB0038","2010-09-06",,,10.00,0.00,0.00
"US1AKAB0038","2010-09-07",,,147.00,0.00,0.00
"US1AKAB0038","2010-09-08",,,3.00,0.00,0.00
"US1AKAB0038","2010-09-09",,,15.00,0.00,0.00
"US1AKAB0038","2010-09-10",,,13.00,0.00,0.00
"US1AKAB0038","2010-09-11",,,0.00,0.00,0.00
"US1AKAB0038","2010-09-12",,,0.00,0.00,0.00
"US1AKAB0038","2010-09-13",,,0.00,0.00,0.00
"US1AKAB0038","2010-09-14",,,0.00,0.00,0.00
"US1AKAB0038","2010-09-15",,,0.00,0.00,0.00
"US1AKAB0038","2010-09-16",,,0.00,0.00,0.00
"US1AKAB0038","2010-09-17",,,0.00,0.00,0.00
"US1AKAB0038","2010-09-18",,,0.00,0.00,0.00
"US1AKAB0038","2010-09-19",,,0.00,0.00,0.00
"US1AKAB0038","2010-09-20",,,0.00,0.00,0.00
"US1AKAB0038","2010-09-21",,,0.00,0.00,0.00
"US1AKAB0038","2010-09-22",,,0.00,0.00,0.00
"US1AKAB0038","2010-09-23",,,0.00,0.00,0.00
"US1AKAB0038","2010-09-24",,,0.00,0.00,0.00
"US1AKAB0038","2010-09-25",,,0.00,0.00,0.00
"US1AKAB0038","2010-09-26",,,0.00,0.00,0.00
"US1AKAB0038","2010-09-27",,,18.00,20.00,0.00
"US1AKAB0038","2010-09-28",,,0.00,0.00,0.00
"US1AKAB0038","2010-09-29",,,0.00,0.00,0.00
"US1AKAB0038","2010-09-30",,,5.00,0.00,0.00
"US1AKAB0038","2010-10-01",,,28.00,0.00,0.00
"US1AKAB0038","2010-10-02",,,287.00,0.00,0.00
"US1AKAB0038","2010-10-03",,,18.00,0.00,0.00
"US1AKAB0038","2010-10-04",,,10.00,0.00,0.00
"US1AKAB0038","2010-10-05",,,0.00,0.00,0.00
"US1AKAB0038","2010-10-06",,,10.00,8.00,13.00
"US1AKAB0038","2010-10-07",,,3.00,3.00,0.00
"US1AKAB0038","2010-10-08",,,0.00,0.00,0.00
"US1AKAB0038","2010-10-09",,,0.00,0.00,0.00
"US1AKAB0038","2010-10-10",,,0.00,0.00,0.00
"US1AKAB0038","2010-10-11",,,0.00,0.00,0.00
"US1AKAB0038","2010-10-12",,,13.00,15.00,0.00
"US1AKAB0038","2010-10-13",,,0.00,0.00,0.00
"US1AKAB0038","2010-10-14",,,0.00,0.00,0.00
"US1AKAB0038","2010-10-15",,,0.00,0.00,0.00
"US1AKAB0038","2010-10-16",,,0.00,0.00,0.00
"US1AKAB0038","2010-10-17",,,0.00,0.00,0.00
"US1AKAB0038","2010-10-18",,,0.00,0.00,0.00
"US1AKAB0038","2010-10-19",,,0.00,0.00,0.00
"US1AKAB0038","2010-10-20",,,0.00,0.00,0.00
"US1AKAB0038","2010-10-21",,,0.00,0.00,0.00
"US1AKAB0038","2010-10-22",,,0.00,0.00,0.00
"US1AKAB0038","2010-10-23",,,0.00,0.00,0.00
"US1AKAB0038","2010-10-24",,,0.00,0.00,0.00
"US1AKAB0038","2010-10-25",,,0.00,0.00,0.00
"US1AKAB0038","2010-10-26",,,36.00,41.00,38.00
"US1AKAB0038","2010-10-27",,,0.00,0.00,25.00
"US1AKAB0038","2010-10-28",,,3.00,3.00,25.00
"US1AKAB0038","2010-10-29",,,58.00,69.00,76.00
"US1AKAB0038","2010-10-30",,,0.00,0.00,64.00
"US1AKAB0038","2010-10-31",,,0.00,0.00,64.00
"US1AKAB0038","2010-11-01",,,0.00,0.00,64.00
"US1AKAB0038","2010-11-02",,,53.00,56.00,102.00
"US1AKAB0038","2010-11-03",,,20.00,25.00,127.00
"US1AKAB0038","2010-11-04",,,130.00,69.00,140.00
"US1AKAB0038","2010-11-05",,,145.00,142.00,267.00
"US1AKAB0038","2010-11-06",,,23.00,36.00,305.00
"US1AKAB0038","2010-11-07",,,0.00,0.00,292.00
"US1AKAB0038","2010-11-08",,,38.00,58.00,343.00
"US1AKAB0038","2010-11-09",,,0.00,0.00,330.00
"US1AKAB0038","2010-11-10",,,0.00,0.00,318.00
"US1AKAB0038","2010-11-11",,,3.00,3.00,305.00
"US1AKAB0038","2010-11-12",,,0.00,0.00,279.00
"US1AKAB0038","2010-11-13",,,79.00,81.00,330.00
"US1AKAB0038","2010-11-14",,,0.00,0.00,318.00
"US1AKAB0038","2010-11-15",,,0.00,3.00,318.00
"US1AKAB0038","2010-11-16",,,13.00,33.00,343.00
"US1AKAB0038","2010-11-17",,,0.00,0.00,330.00
"US1AKAB0038","2010-11-18",,,0.00,0.00,318.00
"US1AKAB0038","2010-11-19",,,0.00,0.00,305.00
"US1AKAB0038","2010-11-20",,,0.00,0.00,305.00
"US1AKAB0038","2010-11-21",,,0.00,0.00,305.00
"US1AKAB0038","2011-03-31",,,,91.00,
"US1AKAB0038","2011-04-02",,,15.00,23.00,483.00
"US1AKAB0038","2016-12-16",,,8.00,8.00,152.00
"US1AKAB0038","2016-12-17",,,5.00,8.00,152.00
"US1AKAB0038","2016-12-18",,,3.00,3.00,152.00
"US1AKAB0038","2016-12-19",,,0.00,0.00,178.00
"US1AKAB0038","2016-12-20",,,13.00,23.00,178.00
"US1AKAB0038","2016-12-21",,,0.00,0.00,178.00
"US1AKAB0038","2016-12-22",,,0.00,0.00,178.00
"US1AKAB0038","2016-12-23",,,0.00,0.00,152.00
"US1AKAB0038","2016-12-24",,,0.00,0.00,152.00
"US1AKAB0038","2016-12-25",,,3.00,3.00,152.00
"US1AKAB0038","2016-12-26",,,0.00,0.00,152.00
"US1AKAB0038","2016-12-27",,,0.00,0.00,152.00
"US1AKAB0038","2016-12-28",,,15.00,30.00,178.00
"US1AKAB0038","2016-12-29",,,18.00,33.00,203.00
"US1AKAB0038","2016-12-30",,,38.00,53.00,203.00
"US1AKAB0038","2016-12-31",,,0.00,0.00,203.00
"US1AKAB0038","2017-01-01",,,0.00,0.00,203.00
"US1AKAB0038","2017-01-02",,,0.00,0.00,203.00
"US1AKAB0038","2017-01-03",,,0.00,0.00,203.00
"US1AKAB0038","2017-01-04",,,0.00,0.00,178.00
"US1AKAB0038","2017-01-05",,,0.00,0.00,178.00
"US1AKAB0038","2017-01-06",,,0.00,0.00,178.00
"US1AKAB0038","2017-01-07",,,0.00,0.00,178.00
"US1AKAB0038","2017-01-08",,,0.00,0.00,178.00
"US1AKAB0038","2017-01-09",,,0.00,0.00,178.00
"US1AKAB0038","2017-04-27",,,48.00,53.00,330.00
"US1AKAB0038","2017-04-28",,,5.00,5.00,330.00
"US1AKAB0038","2017-04-29",,,0.00,0.00,330.00
"US1AKAB0038","2017-04-30",,,0.00,0.00,305.00
"US1AKAB0038","2018-04-16",,,0.00,0.00,356.00